Showing default

TRITON 1, 39427

Orbit data source: Space-Track

TRITON 1, 39427 is a payload satellite owned by ISIS BV (UK) in SSO that was launched on Thu, 21 Nov 2013 UTC via a DNEPR launch vehicle from the Orenburg, Russia (OREN). Payload-class satellites include a variety of spacecraft equipped with specific instruments for various scientific and technological missions. These include communications satellites like Starlink; space stations such as the ISS; scientific satellites like the Hubble; Earth observation satellites from companies like Planet Labs, Umbra, and HawkEye 360; GPS; miniature CubeSats for education and research; and military/defense satellites.

Loading next visibility...
Identifier
39427, 2013-066M
Orbit
SSO
Country
Flag of UKUK
Related business
Manufacturer
ISIS BV
Mission
Operational Amateur Communications
Bus & Motor
CUBESAT 3U, Unknown motor
Mass
2.5 kg wet, 2.5 kg dry
Launch date (UTC)
2013-11-21 (12 years ago)
Launch vehicle
DNEPR
Launch site
Orenburg, Russia (OREN)
Object type
Payload
Rocket body
Debris
Shape & HBR
Box, 0.1 m
Radar Cross Section
0.075 m², Medium (>0.1 m² and < 1m²)

Expand to show TLE details & history
Last TLE update: 9 hours ago

TLE from 9 hours ago
0 TRITON 1
1 39427U 13066M   25300.47296976  .00004313  00000-0  53728-3 0  9990
2 39427  97.8283 210.7068 0090973 272.3298  86.7501 14.80081955639645
Epoch: 2025-10-27T11:21Z
TLE epoch observation values (Epoch: 2025-10-27T11:21:04.587Z)
Latitude
0.00004°
Longitude
4.36337°
Altitude
629.053 km
Speed
7.546 km/s
True Right ascension
14h 02m 49s
True Declination
0° 00' 00"
Sunlit
Object was in daylight at epoch
Visualization orbit readout
Latitude
Unknown
Longitude
Unknown
Altitude
Unknown
Speed
Unknown
Apparent Right ascension
Unknown
Apparent Declination
Unknown
Sunlit
N/A
Visualization observer readout
Local Sidereal Time
15:52:29
Azimuth
Unknown
Elevation
Unknown
Doppler factor
Unknown
Orbital elements
Apogee altitude
689.822 km
Perigee altitude
562.383 km
Semi-major axis
7,004.24 km
Eccentricity
0.0091
Inclination
97.8283°
RAAN
210.7068°
Arg. of periapsis
272.3298°
True anomaly
87.79151°
Mean anomaly
86.7501°
Eccentric anomaly
87.27075°
Mean motion
3.70256 °/min
Orbital period
97.23 mins
BSTAR
0.00053728
Loading maneuver chart data...
Computing Atmospheric mass density...
Loading historical data...
Loading historical data...
Loading historical data...
Loading historical data...
Loading historical data...
Loading historical data...
Loading historical data...

Documentation

Showing up to 5 results
|